Powrót do katalogu

LEMUR-2 JULIA-JOEL

AktywnyNaukaSSO
NORAD 68476·PAYLOAD·🇱🇺 Luxembourg

Wystrzelony Mar 30, 2026 z Vandenberg Space Force Base

Loading…

Następne Przeloty (najbliższe 24 godziny)

TLE

ŚwieżeSource: Space-Track

Epoka: Sep 14, 2026, 08:21 UTC

1 68476U 26067BN  26257.34792466  .00002645  00000-0  25814-3 0  9995
2 68476  97.7655 214.4491 0002067  16.2303 343.8983 14.93275192 25038

Śledź LEMUR-2 JULIA-JOEL w czasie rzeczywistym z AllMySat

Download on the App Store